Time,TemperatureF,DewpointF,PressureIn,WindDirection,WindDirectionDegrees,WindSpeedMPH,WindSpeedGustMPH,Humidity,HourlyPrecipIn,Conditions,Clouds,dailyrainin,SoftwareType,DateUTC
2013-01-20 00:01:00,41.9,34.9,29.72,SSW,212,15.0,23.0,76,0.00,,,0.00,WUHU216DAVISVP2,2013-01-20 05:01:00,
2013-01-20 00:06:00,42.1,34.8,29.72,South,178,13.0,23.0,75,0.00,,,0.00,WUHU216DAVISVP2,2013-01-20 05:06:00,
2013-01-20 00:11:00,42.0,34.7,29.73,SSW,199,16.0,23.0,75,0.00,,,0.00,WUHU216DAVISVP2,2013-01-20 05:11:00,
2013-01-20 00:16:00,42.0,34.4,29.72,SSW,213,15.0,25.0,74,0.00,,,0.00,WUHU216DAVISVP2,2013-01-20 05:16:00,
2013-01-20 00:21:00,42.4,34.4,29.73,SW,225,26.0,37.0,73,0.00,,,0.00,WUHU216DAVISVP2,2013-01-20 05:21:00,
2013-01-20 00:26:00,42.4,34.1,29.72,SSW,210,25.0,37.0,72,0.00,,,0.00,WUHU216DAVISVP2,2013-01-20 05:26:00,
2013-01-20 00:31:00,42.3,34.3,29.72,SW,215,13.0,37.0,73,0.00,,,0.00,WUHU216DAVISVP2,2013-01-20 05:31:00,
2013-01-20 00:36:00,42.3,34.3,29.73,SW,227,23.0,37.0,73,0.00,,,0.00,WUHU216DAVISVP2,2013-01-20 05:36:00,
2013-01-20 00:41:00,42.2,34.2,29.73,SW,214,17.0,29.0,73,0.00,,,0.00,WUHU216DAVISVP2,2013-01-20 05:41:00,
2013-01-20 00:46:00,41.9,34.3,29.73,SW,216,14.0,32.0,74,0.00,,,0.00,WUHU216DAVISVP2,2013-01-20 05:46:00,
2013-01-20 00:52:00,41.6,33.7,29.72,SSW,194,18.0,32.0,73,0.00,,,0.00,WUHU216DAVISVP2,2013-01-20 05:52:00,
2013-01-20 00:57:00,41.2,33.5,29.73,SW,227,14.0,33.0,74,0.00,,,0.00,WUHU216DAVISVP2,2013-01-20 05:57:00,
2013-01-20 01:02:00,41.0,33.0,29.73,SW,215,23.0,33.0,73,0.00,,,0.00,WUHU216DAVISVP2,2013-01-20 06:02:00,
2013-01-20 01:07:00,40.8,33.2,29.73,SSW,200,17.0,33.0,74,0.00,,,0.00,WUHU216DAVISVP2,2013-01-20 06:07:00,
2013-01-20 01:12:00,40.4,33.1,29.73,SSW,204,14.0,33.0,75,0.00,,,0.00,WUHU216DAVISVP2,2013-01-20 06:12:00,
2013-01-20 01:17:00,40.4,33.1,29.73,SSW,209,17.0,33.0,75,0.00,,,0.00,WUHU216DAVISVP2,2013-01-20 06:17:00,
2013-01-20 01:22:00,40.3,33.1,29.73,SSW,197,17.0,24.0,75,0.00,,,0.00,WUHU216DAVISVP2,2013-01-20 06:22:00,
2013-01-20 01:27:00,40.1,32.5,29.73,SSW,202,13.0,26.0,74,0.00,,,0.00,WUHU216DAVISVP2,2013-01-20 06:27:00,
2013-01-20 01:32:00,39.9,31.7,29.74,SSW,209,11.0,26.0,72,0.00,,,0.00,WUHU216DAVISVP2,2013-01-20 06:32:00,
2013-01-20 01:37:00,39.9,29.9,29.74,SW,234,22.0,34.0,67,0.00,,,0.00,WUHU216DAVISVP2,2013-01-20 06:37:00,
2013-01-20 01:42:00,39.7,27.4,29.75,SW,223,20.0,41.0,61,0.00,,,0.00,WUHU216DAVISVP2,2013-01-20 06:42:00,
2013-01-20 01:48:00,39.7,26.6,29.75,SSW,205,22.0,44.0,59,0.00,,,0.00,WUHU216DAVISVP2,2013-01-20 06:48:00,
2013-01-20 01:53:00,39.5,26.4,29.75,SW,223,22.0,44.0,59,0.00,,,0.00,WUHU216DAVISVP2,2013-01-20 06:53:00,
2013-01-20 01:58:00,39.2,26.1,29.76,SW,217,20.0,44.0,59,0.00,,,0.00,WUHU216DAVISVP2,2013-01-20 06:58:00,
2013-01-20 02:03:00,39.0,26.8,29.76,SW,236,29.0,44.0,61,0.00,,,0.00,WUHU216DAVISVP2,2013-01-20 07:03:00,
2013-01-20 02:08:00,38.9,26.7,29.76,SW,236,13.0,40.0,61,0.00,,,0.00,WUHU216DAVISVP2,2013-01-20 07:08:00,
2013-01-20 02:13:00,38.6,26.0,29.77,SW,219,17.0,40.0,60,0.00,,,0.00,WUHU216DAVISVP2,2013-01-20 07:13:00,
2013-01-20 02:18:00,38.3,26.1,29.77,SW,225,23.0,36.0,61,0.00,,,0.00,WUHU216DAVISVP2,2013-01-20 07:18:00,
2013-01-20 02:23:00,38.0,25.0,29.77,SW,227,21.0,36.0,59,0.00,,,0.00,WUHU216DAVISVP2,2013-01-20 07:23:00,
2013-01-20 02:29:00,37.9,24.5,29.78,SW,232,18.0,37.0,58,0.00,,,0.00,WUHU216DAVISVP2,2013-01-20 07:29:00,
2013-01-20 02:34:00,37.2,23.8,29.78,WSW,248,25.0,39.0,58,0.00,,,0.00,WUHU216DAVISVP2,2013-01-20 07:34:00,
2013-01-20 02:39:00,36.9,22.7,29.80,SW,216,19.0,39.0,56,0.00,,,0.00,WUHU216DAVISVP2,2013-01-20 07:39:00,
2013-01-20 02:44:00,36.6,22.4,29.80,SW,228,24.0,39.0,56,0.00,,,0.00,WUHU216DAVISVP2,2013-01-20 07:44:00,
2013-01-20 02:49:00,36.2,22.9,29.81,SW,229,26.0,39.0,58,0.00,,,0.00,WUHU216DAVISVP2,2013-01-20 07:49:00,
2013-01-20 02:54:00,34.6,18.7,29.82,WSW,256,27.0,41.0,52,0.00,,,0.00,WUHU216DAVISVP2,2013-01-20 07:54:00,
2013-01-20 02:59:00,33.4,16.7,29.83,SW,236,26.0,41.0,50,0.00,,,0.00,WUHU216DAVISVP2,2013-01-20 07:59:00,
2013-01-20 03:04:00,33.0,17.7,29.83,SW,228,26.0,41.0,53,0.00,,,0.00,WUHU216DAVISVP2,2013-01-20 08:04:00,
2013-01-20 03:09:00,32.4,19.7,29.84,SW,233,22.0,41.0,59,0.00,,,0.00,WUHU216DAVISVP2,2013-01-20 08:09:00,
2013-01-20 03:14:00,31.4,19.5,29.86,WSW,243,20.0,41.0,61,0.00,,,0.00,WUHU216DAVISVP2,2013-01-20 08:14:00,
2013-01-20 03:19:00,30.7,18.4,29.86,SW,234,17.0,39.0,60,0.00,,,0.00,WUHU216DAVISVP2,2013-01-20 08:19:00,
2013-01-20 03:24:00,30.2,17.2,29.87,WSW,248,25.0,33.0,58,0.00,,,0.00,WUHU216DAVISVP2,2013-01-20 08:24:00,
2013-01-20 03:29:00,29.9,16.9,29.87,WSW,248,30.0,46.0,58,0.00,,,0.00,WUHU216DAVISVP2,2013-01-20 08:29:00,
2013-01-20 03:34:00,29.6,17.1,29.88,SW,236,23.0,46.0,59,0.00,,,0.00,WUHU216DAVISVP2,2013-01-20 08:34:00,
2013-01-20 03:39:00,29.4,16.9,29.88,WSW,255,32.0,46.0,59,0.00,,,0.00,WUHU216DAVISVP2,2013-01-20 08:39:00,
2013-01-20 03:44:00,29.2,16.7,29.89,WSW,237,29.0,46.0,59,0.00,,,0.00,WUHU216DAVISVP2,2013-01-20 08:44:00,
2013-01-20 03:49:00,29.0,16.9,29.89,WSW,241,22.0,42.0,60,0.00,,,0.00,WUHU216DAVISVP2,2013-01-20 08:49:00,
2013-01-20 03:55:00,28.9,16.7,29.89,WSW,253,30.0,42.0,60,0.00,,,0.00,WUHU216DAVISVP2,2013-01-20 08:55:00,
2013-01-20 04:00:00,28.8,17.0,29.90,WSW,242,26.0,42.0,61,0.00,,,0.00,WUHU216DAVISVP2,2013-01-20 09:00:00,
2013-01-20 04:05:00,28.5,15.6,29.90,WSW,245,29.0,42.0,58,0.00,,,0.00,WUHU216DAVISVP2,2013-01-20 09:05:00,
2013-01-20 04:10:00,27.7,14.5,29.91,WSW,240,20.0,42.0,57,0.00,,,0.00,WUHU216DAVISVP2,2013-01-20 09:10:00,
2013-01-20 04:15:00,27.3,14.9,29.91,WSW,244,27.0,42.0,59,0.00,,,0.00,WUHU216DAVISVP2,2013-01-20 09:15:00,
2013-01-20 04:20:00,27.2,14.4,29.92,South,182,17.0,42.0,58,0.00,,,0.00,WUHU216DAVISVP2,2013-01-20 09:20:00,
2013-01-20 04:25:00,26.9,14.9,29.92,WSW,240,13.0,41.0,60,0.00,,,0.00,WUHU216DAVISVP2,2013-01-20 09:25:00,
2013-01-20 04:30:00,26.8,15.1,29.93,SW,232,18.0,39.0,61,0.00,,,0.00,WUHU216DAVISVP2,2013-01-20 09:30:00,
2013-01-20 04:35:00,26.6,14.6,29.93,SSE,168,19.0,38.0,60,0.00,,,0.00,WUHU216DAVISVP2,2013-01-20 09:35:00,
2013-01-20 04:40:00,26.3,15.1,29.93,WSW,242,19.0,38.0,62,0.00,,,0.00,WUHU216DAVISVP2,2013-01-20 09:40:00,
2013-01-20 04:45:00,26.1,14.5,29.93,SSW,213,16.0,38.0,61,0.00,,,0.00,WUHU216DAVISVP2,2013-01-20 09:45:00,
2013-01-20 04:50:00,26.0,15.2,29.94,SW,235,19.0,38.0,63,0.00,,,0.00,WUHU216DAVISVP2,2013-01-20 09:50:00,
2013-01-20 04:55:00,26.0,15.1,29.94,WSW,244,18.0,35.0,63,0.00,,,0.00,WUHU216DAVISVP2,2013-01-20 09:55:00,
2013-01-20 05:00:00,25.6,15.1,29.94,SW,234,15.0,35.0,64,0.00,,,0.00,WUHU216DAVISVP2,2013-01-20 10:00:00,
2013-01-20 05:06:00,25.5,15.4,29.94,WSW,248,19.0,34.0,65,0.00,,,0.00,WUHU216DAVISVP2,2013-01-20 10:06:00,
2013-01-20 05:11:00,25.2,16.2,29.95,SW,234,20.0,34.0,68,0.00,,,0.00,WUHU216DAVISVP2,2013-01-20 10:11:00,
2013-01-20 05:16:00,25.0,17.0,29.96,WSW,252,19.0,33.0,71,0.00,,,0.00,WUHU216DAVISVP2,2013-01-20 10:16:00,
2013-01-20 05:21:00,24.7,17.6,29.96,WSW,248,21.0,33.0,74,0.00,,,0.00,WUHU216DAVISVP2,2013-01-20 10:21:00,
2013-01-20 05:26:00,24.6,17.5,29.97,WSW,238,17.0,31.0,74,0.00,,,0.00,WUHU216DAVISVP2,2013-01-20 10:26:00,
2013-01-20 05:31:00,24.7,16.7,29.98,WSW,240,13.0,31.0,71,0.00,,,0.00,WUHU216DAVISVP2,2013-01-20 10:31:00,
2013-01-20 05:36:00,24.4,16.7,29.98,SW,227,22.0,29.0,72,0.00,,,0.00,WUHU216DAVISVP2,2013-01-20 10:36:00,
2013-01-20 05:41:00,24.0,17.0,29.98,WSW,245,22.0,33.0,74,0.00,,,0.00,WUHU216DAVISVP2,2013-01-20 10:41:00,
2013-01-20 05:46:00,23.7,17.0,29.99,WSW,239,19.0,33.0,75,0.00,,,0.00,WUHU216DAVISVP2,2013-01-20 10:46:00,
2013-01-20 05:52:00,23.6,17.5,29.99,SW,230,18.0,33.0,77,0.00,,,0.00,WUHU216DAVISVP2,2013-01-20 10:52:00,
2013-01-20 05:57:00,23.6,17.4,30.00,West,262,13.0,29.0,77,0.00,,,0.00,WUHU216DAVISVP2,2013-01-20 10:57:00,
2013-01-20 06:02:00,23.3,15.6,30.00,West,259,17.0,27.0,72,0.00,,,0.00,WUHU216DAVISVP2,2013-01-20 11:02:00,
2013-01-20 06:07:00,23.0,15.4,30.00,SW,234,20.0,29.0,72,0.00,,,0.00,WUHU216DAVISVP2,2013-01-20 11:07:00,
2013-01-20 06:12:00,22.6,14.3,30.01,WSW,250,26.0,40.0,70,0.00,,,0.00,WUHU216DAVISVP2,2013-01-20 11:12:00,
2013-01-20 06:17:00,22.2,13.6,30.02,WSW,246,18.0,40.0,69,0.00,,,0.00,WUHU216DAVISVP2,2013-01-20 11:17:00,
2013-01-20 06:22:00,21.9,13.3,30.02,WSW,249,16.0,40.0,69,0.00,,,0.00,WUHU216DAVISVP2,2013-01-20 11:22:00,
2013-01-20 06:27:00,21.8,12.9,30.02,SW,225,22.0,40.0,68,0.00,,,0.00,WUHU216DAVISVP2,2013-01-20 11:27:00,
2013-01-20 06:32:00,21.8,12.2,30.03,WSW,244,33.0,39.0,66,0.00,,,0.00,WUHU216DAVISVP2,2013-01-20 11:32:00,
2013-01-20 06:37:00,21.8,12.2,30.03,SW,229,22.0,39.0,66,0.00,,,0.00,WUHU216DAVISVP2,2013-01-20 11:37:00,
2013-01-20 06:42:00,21.7,13.1,30.04,West,267,18.0,39.0,69,0.00,,,0.00,WUHU216DAVISVP2,2013-01-20 11:42:00,
2013-01-20 06:47:00,21.2,13.6,30.04,WSW,243,27.0,39.0,72,0.00,,,0.00,WUHU216DAVISVP2,2013-01-20 11:47:00,
2013-01-20 06:52:00,21.2,11.3,30.04,WSW,242,19.0,35.0,65,0.00,,,0.00,WUHU216DAVISVP2,2013-01-20 11:52:00,
2013-01-20 06:57:00,21.1,10.8,30.05,SW,216,24.0,36.0,64,0.00,,,0.00,WUHU216DAVISVP2,2013-01-20 11:57:00,
2013-01-20 07:02:00,20.9,11.0,30.05,WSW,240,17.0,36.0,65,0.00,,,0.00,WUHU216DAVISVP2,2013-01-20 12:02:00,
2013-01-20 07:07:00,20.9,11.4,30.05,WSW,255,22.0,36.0,66,0.00,,,0.00,WUHU216DAVISVP2,2013-01-20 12:07:00,
2013-01-20 07:12:00,20.9,12.4,30.06,West,262,11.0,32.0,69,0.00,,,0.00,WUHU216DAVISVP2,2013-01-20 12:12:00,
2013-01-20 07:18:00,20.5,13.6,30.07,West,263,19.0,29.0,74,0.00,,,0.00,WUHU216DAVISVP2,2013-01-20 12:18:00,
2013-01-20 07:23:00,20.3,12.8,30.06,West,260,17.0,31.0,72,0.00,,,0.00,WUHU216DAVISVP2,2013-01-20 12:23:00,
2013-01-20 07:28:00,20.3,12.8,30.07,SW,234,27.0,31.0,72,0.00,,,0.00,WUHU216DAVISVP2,2013-01-20 12:28:00,
2013-01-20 07:33:00,19.9,11.7,30.08,SW,234,17.0,32.0,70,0.00,,,0.00,WUHU216DAVISVP2,2013-01-20 12:33:00,
2013-01-20 07:38:00,19.7,11.5,30.08,WSW,244,22.0,32.0,70,0.00,,,0.00,WUHU216DAVISVP2,2013-01-20 12:38:00,
2013-01-20 07:43:00,19.6,11.1,30.09,West,270,21.0,37.0,69,0.00,,,0.00,WUHU216DAVISVP2,2013-01-20 12:43:00,
2013-01-20 07:48:00,19.6,12.1,30.09,West,259,17.0,37.0,72,0.00,,,0.00,WUHU216DAVISVP2,2013-01-20 12:48:00,
2013-01-20 07:53:00,19.2,10.7,30.10,WSW,243,21.0,37.0,69,0.00,,,0.00,WUHU216DAVISVP2,2013-01-20 12:53:00,
2013-01-20 07:58:00,19.1,10.3,30.10,WSW,254,17.0,37.0,68,0.00,,,0.00,WUHU216DAVISVP2,2013-01-20 12:58:00,
2013-01-20 08:03:00,19.0,10.2,30.11,WSW,242,23.0,31.0,68,0.00,,,0.00,WUHU216DAVISVP2,2013-01-20 13:03:00,
2013-01-20 08:08:00,19.1,10.6,30.11,WSW,250,18.0,31.0,69,0.00,,,0.00,WUHU216DAVISVP2,2013-01-20 13:08:00,
2013-01-20 08:13:00,19.1,11.0,30.11,WSW,237,13.0,31.0,70,0.00,,,0.00,WUHU216DAVISVP2,2013-01-20 13:13:00,
2013-01-20 08:18:00,19.1,11.6,30.12,WSW,252,19.0,28.0,72,0.00,,,0.00,WUHU216DAVISVP2,2013-01-20 13:18:00,
2013-01-20 08:23:00,19.0,11.8,30.13,West,259,12.0,28.0,73,0.00,,,0.00,WUHU216DAVISVP2,2013-01-20 13:23:00,
2013-01-20 08:29:00,18.8,11.6,30.13,West,271,16.0,29.0,73,0.00,,,0.00,WUHU216DAVISVP2,2013-01-20 13:29:00,
2013-01-20 08:34:00,18.9,11.4,30.13,West,261,18.0,29.0,72,0.00,,,0.00,WUHU216DAVISVP2,2013-01-20 13:34:00,
2013-01-20 08:39:00,18.9,10.8,30.14,SW,222,19.0,29.0,70,0.00,,,0.00,WUHU216DAVISVP2,2013-01-20 13:39:00,
2013-01-20 08:44:00,18.9,10.8,30.14,West,260,13.0,28.0,70,0.00,,,0.00,WUHU216DAVISVP2,2013-01-20 13:44:00,
2013-01-20 08:49:00,18.9,10.8,30.14,WSW,254,16.0,28.0,70,0.00,,,0.00,WUHU216DAVISVP2,2013-01-20 13:49:00,
2013-01-20 08:54:00,18.9,10.1,30.14,West,261,21.0,28.0,68,0.00,,,0.00,WUHU216DAVISVP2,2013-01-20 13:54:00,
2013-01-20 08:59:00,19.0,9.8,30.15,WSW,238,17.0,28.0,67,0.00,,,0.00,WUHU216DAVISVP2,2013-01-20 13:59:00,
2013-01-20 09:04:00,18.8,11.0,30.16,WSW,252,17.0,28.0,71,0.00,,,0.00,WUHU216DAVISVP2,2013-01-20 14:04:00,
2013-01-20 09:09:00,18.5,11.9,30.16,West,263,18.0,28.0,75,0.00,,,0.00,WUHU216DAVISVP2,2013-01-20 14:09:00,
2013-01-20 09:14:00,18.5,11.9,30.17,WSW,251,19.0,26.0,75,0.00,,,0.00,WUHU216DAVISVP2,2013-01-20 14:14:00,
2013-01-20 09:19:00,18.5,11.6,30.17,West,275,18.0,26.0,74,0.00,,,0.00,WUHU216DAVISVP2,2013-01-20 14:19:00,
2013-01-20 09:24:00,18.5,11.3,30.17,WSW,255,15.0,26.0,73,0.00,,,0.00,WUHU216DAVISVP2,2013-01-20 14:24:00,
2013-01-20 09:29:00,18.5,10.4,30.17,WSW,238,18.0,31.0,70,0.00,,,0.00,WUHU216DAVISVP2,2013-01-20 14:29:00,
2013-01-20 09:34:00,18.6,10.5,30.18,West,280,20.0,31.0,70,0.00,,,0.00,WUHU216DAVISVP2,2013-01-20 14:34:00,
2013-01-20 09:39:00,18.6,11.4,30.18,WSW,253,20.0,31.0,73,0.00,,,0.00,WUHU216DAVISVP2,2013-01-20 14:39:00,
2013-01-20 09:45:00,18.3,10.2,30.19,SW,234,26.0,31.0,70,0.00,,,0.00,WUHU216DAVISVP2,2013-01-20 14:45:00,
2013-01-20 09:50:00,18.4,9.7,30.19,WSW,257,19.0,29.0,68,0.00,,,0.00,WUHU216DAVISVP2,2013-01-20 14:50:00,
2013-01-20 09:55:00,19.0,9.9,30.19,West,261,18.0,31.0,67,0.00,,,0.00,WUHU216DAVISVP2,2013-01-20 14:55:00,
2013-01-20 10:00:00,19.0,9.6,30.20,WSW,252,20.0,31.0,66,0.00,,,0.00,WUHU216DAVISVP2,2013-01-20 15:00:00,
2013-01-20 10:05:00,18.6,9.2,30.20,WSW,242,18.0,32.0,66,0.00,,,0.00,WUHU216DAVISVP2,2013-01-20 15:05:00,
2013-01-20 10:10:00,18.9,9.5,30.21,SW,229,14.0,32.0,66,0.00,,,0.00,WUHU216DAVISVP2,2013-01-20 15:10:00,
2013-01-20 10:15:00,19.0,9.6,30.21,WSW,240,16.0,32.0,66,0.00,,,0.00,WUHU216DAVISVP2,2013-01-20 15:15:00,
2013-01-20 10:20:00,18.9,9.1,30.22,WSW,254,13.0,27.0,65,0.00,,,0.00,WUHU216DAVISVP2,2013-01-20 15:20:00,
2013-01-20 10:25:00,19.0,9.6,30.22,WSW,248,18.0,27.0,66,0.00,,,0.00,WUHU216DAVISVP2,2013-01-20 15:25:00,
2013-01-20 10:30:00,19.1,9.7,30.22,WSW,243,19.0,27.0,66,0.00,,,0.00,WUHU216DAVISVP2,2013-01-20 15:30:00,
2013-01-20 10:35:00,19.1,10.0,30.22,WSW,242,14.0,28.0,67,0.00,,,0.00,WUHU216DAVISVP2,2013-01-20 15:35:00,
2013-01-20 10:40:00,19.4,10.2,30.22,WSW,241,17.0,28.0,67,0.00,,,0.00,WUHU216DAVISVP2,2013-01-20 15:40:00,
2013-01-20 10:45:00,19.3,9.8,30.22,WSW,244,16.0,28.0,66,0.00,,,0.00,WUHU216DAVISVP2,2013-01-20 15:45:00,
2013-01-20 10:50:00,19.4,10.2,30.22,WSW,253,16.0,25.0,67,0.00,,,0.00,WUHU216DAVISVP2,2013-01-20 15:50:00,
2013-01-20 10:55:00,19.9,10.7,30.22,WSW,238,16.0,25.0,67,0.00,,,0.00,WUHU216DAVISVP2,2013-01-20 15:55:00,
2013-01-20 11:00:00,20.0,10.8,30.23,WSW,241,22.0,25.0,67,0.00,,,0.00,WUHU216DAVISVP2,2013-01-20 16:00:00,
2013-01-20 11:05:00,20.2,11.0,30.23,SSW,211,14.0,27.0,67,0.00,,,0.00,WUHU216DAVISVP2,2013-01-20 16:05:00,
2013-01-20 11:11:00,20.4,10.5,30.23,SW,235,12.0,27.0,65,0.00,,,0.00,WUHU216DAVISVP2,2013-01-20 16:11:00,
2013-01-20 11:16:00,19.9,10.4,30.22,WSW,246,13.0,27.0,66,0.00,,,0.00,WUHU216DAVISVP2,2013-01-20 16:16:00,
2013-01-20 11:21:00,19.8,10.3,30.22,West,262,13.0,24.0,66,0.00,,,0.00,WUHU216DAVISVP2,2013-01-20 16:21:00,
2013-01-20 11:26:00,20.0,10.9,30.22,West,263,19.0,24.0,67,0.00,,,0.00,WUHU216DAVISVP2,2013-01-20 16:26:00,
2013-01-20 11:31:00,20.1,10.9,30.23,SW,232,23.0,24.0,67,0.00,,,0.00,WUHU216DAVISVP2,2013-01-20 16:31:00,
2013-01-20 11:36:00,20.2,10.4,30.23,WSW,246,14.0,24.0,65,0.00,,,0.00,WUHU216DAVISVP2,2013-01-20 16:36:00,
2013-01-20 11:41:00,20.6,10.7,30.22,SW,234,19.0,23.0,65,0.00,,,0.00,WUHU216DAVISVP2,2013-01-20 16:41:00,
2013-01-20 11:46:00,20.2,10.4,30.23,WSW,258,13.0,27.0,65,0.00,,,0.00,WUHU216DAVISVP2,2013-01-20 16:46:00,
2013-01-20 11:51:00,20.7,10.5,30.22,WSW,255,16.0,27.0,64,0.00,,,0.00,WUHU216DAVISVP2,2013-01-20 16:51:00,
2013-01-20 11:56:00,20.4,10.6,30.22,WSW,257,19.0,27.0,65,0.00,,,0.00,WUHU216DAVISVP2,2013-01-20 16:56:00,
2013-01-20 12:01:00,20.4,10.8,30.22,West,269,14.0,27.0,66,0.00,,,0.00,WUHU216DAVISVP2,2013-01-20 17:01:00,
2013-01-20 12:06:00,20.7,11.1,30.22,WNW,288,13.0,23.0,66,0.00,,,0.00,WUHU216DAVISVP2,2013-01-20 17:06:00,
2013-01-20 12:11:00,20.6,11.4,30.22,WSW,254,13.0,23.0,67,0.00,,,0.00,WUHU216DAVISVP2,2013-01-20 17:11:00,
2013-01-20 12:16:00,20.6,11.4,30.21,WSW,248,14.0,21.0,67,0.00,,,0.00,WUHU216DAVISVP2,2013-01-20 17:16:00,
2013-01-20 12:21:00,20.5,11.6,30.21,West,270,10.0,20.0,68,0.00,,,0.00,WUHU216DAVISVP2,2013-01-20 17:21:00,
2013-01-20 12:26:00,20.2,11.0,30.21,WSW,246,18.0,26.0,67,0.00,,,0.00,WUHU216DAVISVP2,2013-01-20 17:26:00,
2013-01-20 12:32:00,20.3,10.7,30.21,WSW,254,14.0,27.0,66,0.00,,,0.00,WUHU216DAVISVP2,2013-01-20 17:32:00,
2013-01-20 12:37:00,20.3,11.1,30.20,SSW,207,13.0,27.0,67,0.00,,,0.00,WUHU216DAVISVP2,2013-01-20 17:37:00,
2013-01-20 12:42:00,20.8,12.0,30.21,SW,230,17.0,27.0,68,0.00,,,0.00,WUHU216DAVISVP2,2013-01-20 17:42:00,
2013-01-20 12:47:00,20.9,12.0,30.20,WSW,242,15.0,27.0,68,0.00,,,0.00,WUHU216DAVISVP2,2013-01-20 17:47:00,
2013-01-20 12:52:00,20.9,11.0,30.20,South,184,13.0,22.0,65,0.00,,,0.00,WUHU216DAVISVP2,2013-01-20 17:52:00,
2013-01-20 12:57:00,20.9,11.7,30.20,WSW,242,14.0,22.0,67,0.00,,,0.00,WUHU216DAVISVP2,2013-01-20 17:57:00,
2013-01-20 13:02:00,20.7,11.5,30.20,WSW,239,16.0,22.0,67,0.00,,,0.00,WUHU216DAVISVP2,2013-01-20 18:02:00,
2013-01-20 13:07:00,21.0,12.1,30.20,WSW,258,11.0,22.0,68,0.00,,,0.00,WUHU216DAVISVP2,2013-01-20 18:07:00,
2013-01-20 13:12:00,20.8,12.0,30.19,WSW,252,15.0,21.0,68,0.00,,,0.00,WUHU216DAVISVP2,2013-01-20 18:12:00,
2013-01-20 13:17:00,20.7,11.9,30.19,West,263,11.0,21.0,68,0.00,,,0.00,WUHU216DAVISVP2,2013-01-20 18:17:00,
2013-01-20 13:22:00,20.5,12.0,30.19,West,270,12.0,20.0,69,0.00,,,0.00,WUHU216DAVISVP2,2013-01-20 18:22:00,
2013-01-20 13:27:00,20.8,12.6,30.19,West,259,10.0,19.0,70,0.00,,,0.00,WUHU216DAVISVP2,2013-01-20 18:27:00,
2013-01-20 13:32:00,21.7,12.8,30.19,SW,226,8.0,19.0,68,0.00,,,0.00,WUHU216DAVISVP2,2013-01-20 18:32:00,
2013-01-20 13:37:00,21.8,11.8,30.19,South,191,9.0,23.0,65,0.00,,,0.00,WUHU216DAVISVP2,2013-01-20 18:37:00,
2013-01-20 13:42:00,22.9,12.5,30.20,SSW,202,14.0,23.0,64,0.00,,,0.00,WUHU216DAVISVP2,2013-01-20 18:42:00,
2013-01-20 13:47:00,21.6,11.3,30.21,West,260,18.0,23.0,64,0.00,,,0.00,WUHU216DAVISVP2,2013-01-20 18:47:00,
2013-01-20 13:52:00,20.9,11.0,30.21,WSW,256,23.0,23.0,65,0.00,,,0.00,WUHU216DAVISVP2,2013-01-20 18:52:00,
2013-01-20 13:57:00,21.2,12.0,30.21,WSW,241,10.0,23.0,67,0.00,,,0.00,WUHU216DAVISVP2,2013-01-20 18:57:00,
2013-01-20 14:03:00,21.7,11.8,30.20,WSW,257,20.0,23.0,65,0.00,,,0.00,WUHU216DAVISVP2,2013-01-20 19:03:00,
2013-01-20 14:08:00,22.5,12.6,30.21,SSW,196,24.0,24.0,65,0.00,,,0.00,WUHU216DAVISVP2,2013-01-20 19:08:00,
2013-01-20 14:13:00,21.4,11.2,30.21,WSW,244,15.0,24.0,64,0.00,,,0.00,WUHU216DAVISVP2,2013-01-20 19:13:00,
2013-01-20 14:18:00,21.8,12.2,30.21,WSW,252,13.0,24.0,66,0.00,,,0.00,WUHU216DAVISVP2,2013-01-20 19:18:00,
2013-01-20 14:23:00,21.6,11.3,30.21,WSW,243,11.0,24.0,64,0.00,,,0.00,WUHU216DAVISVP2,2013-01-20 19:23:00,
2013-01-20 14:28:00,21.5,11.6,30.21,West,267,11.0,22.0,65,0.00,,,0.00,WUHU216DAVISVP2,2013-01-20 19:28:00,
2013-01-20 14:33:00,21.3,11.8,30.22,WSW,241,10.0,20.0,66,0.00,,,0.00,WUHU216DAVISVP2,2013-01-20 19:33:00,
2013-01-20 14:38:00,21.3,11.4,30.22,SSW,197,16.0,20.0,65,0.00,,,0.00,WUHU216DAVISVP2,2013-01-20 19:38:00,
2013-01-20 14:43:00,21.2,11.7,30.22,SW,225,16.0,21.0,66,0.00,,,0.00,WUHU216DAVISVP2,2013-01-20 19:43:00,
2013-01-20 14:48:00,20.9,12.0,30.22,SW,225,12.0,22.0,68,0.00,,,0.00,WUHU216DAVISVP2,2013-01-20 19:48:00,
2013-01-20 14:53:00,21.1,11.9,30.22,WSW,244,13.0,22.0,67,0.00,,,0.00,WUHU216DAVISVP2,2013-01-20 19:53:00,
2013-01-20 14:58:00,21.3,12.1,30.23,WSW,241,12.0,22.0,67,0.00,,,0.00,WUHU216DAVISVP2,2013-01-20 19:58:00,
2013-01-20 15:03:00,20.7,10.8,30.22,SW,232,11.0,20.0,65,0.00,,,0.00,WUHU216DAVISVP2,2013-01-20 20:03:00,
2013-01-20 15:08:00,21.3,11.8,30.22,SW,221,13.0,20.0,66,0.00,,,0.00,WUHU216DAVISVP2,2013-01-20 20:08:00,
2013-01-20 15:13:00,21.9,12.0,30.23,SW,227,14.0,21.0,65,0.00,,,0.00,WUHU216DAVISVP2,2013-01-20 20:13:00,
2013-01-20 15:18:00,21.9,10.9,30.23,SW,232,18.0,21.0,62,0.00,,,0.00,WUHU216DAVISVP2,2013-01-20 20:18:00,
2013-01-20 15:23:00,21.2,11.0,30.23,SSW,209,15.0,21.0,64,0.00,,,0.00,WUHU216DAVISVP2,2013-01-20 20:23:00,
2013-01-20 15:29:00,21.0,11.1,30.23,SW,234,16.0,21.0,65,0.00,,,0.00,WUHU216DAVISVP2,2013-01-20 20:29:00,
2013-01-20 15:34:00,20.8,10.9,30.23,WSW,240,13.0,21.0,65,0.00,,,0.00,WUHU216DAVISVP2,2013-01-20 20:34:00,
2013-01-20 15:39:00,20.6,11.1,30.23,SSW,211,7.0,21.0,66,0.00,,,0.00,WUHU216DAVISVP2,2013-01-20 20:39:00,
2013-01-20 15:44:00,20.4,10.6,30.23,WSW,249,11.0,21.0,65,0.00,,,0.00,WUHU216DAVISVP2,2013-01-20 20:44:00,
2013-01-20 15:49:00,20.4,10.6,30.23,West,261,10.0,20.0,65,0.00,,,0.00,WUHU216DAVISVP2,2013-01-20 20:49:00,
2013-01-20 15:54:00,20.4,10.5,30.23,SW,215,14.0,20.0,65,0.00,,,0.00,WUHU216DAVISVP2,2013-01-20 20:54:00,
2013-01-20 15:59:00,20.4,10.5,30.23,SW,215,18.0,20.0,65,0.00,,,0.00,WUHU216DAVISVP2,2013-01-20 20:59:00,
2013-01-20 16:04:00,20.4,10.8,30.23,SW,229,10.0,20.0,66,0.00,,,0.00,WUHU216DAVISVP2,2013-01-20 21:04:00,
2013-01-20 16:09:00,20.3,10.5,30.23,WSW,253,12.0,20.0,65,0.00,,,0.00,WUHU216DAVISVP2,2013-01-20 21:09:00,
2013-01-20 16:14:00,20.2,10.7,30.23,WSW,238,11.0,20.0,66,0.00,,,0.00,WUHU216DAVISVP2,2013-01-20 21:14:00,
2013-01-20 16:19:00,20.3,10.5,30.23,WSW,246,10.0,18.0,65,0.00,,,0.00,WUHU216DAVISVP2,2013-01-20 21:19:00,
2013-01-20 16:24:00,20.3,10.8,30.23,WSW,242,10.0,18.0,66,0.00,,,0.00,WUHU216DAVISVP2,2013-01-20 21:24:00,
2013-01-20 16:29:00,20.2,11.0,30.23,WSW,244,12.0,18.0,67,0.00,,,0.00,WUHU216DAVISVP2,2013-01-20 21:29:00,
2013-01-20 16:34:00,20.2,11.4,30.23,WSW,248,11.0,18.0,68,0.00,,,0.00,WUHU216DAVISVP2,2013-01-20 21:34:00,
2013-01-20 16:39:00,20.2,11.4,30.23,WSW,240,10.0,14.0,68,0.00,,,0.00,WUHU216DAVISVP2,2013-01-20 21:39:00,
2013-01-20 16:44:00,20.0,11.2,30.23,SSW,205,7.0,15.0,68,0.00,,,0.00,WUHU216DAVISVP2,2013-01-20 21:44:00,
2013-01-20 16:49:00,20.1,11.6,30.24,WSW,241,10.0,15.0,69,0.00,,,0.00,WUHU216DAVISVP2,2013-01-20 21:49:00,
2013-01-20 16:55:00,19.9,11.1,30.24,WSW,237,10.0,15.0,68,0.00,,,0.00,WUHU216DAVISVP2,2013-01-20 21:55:00,
2013-01-20 17:00:00,19.9,10.8,30.23,WSW,242,12.0,15.0,67,0.00,,,0.00,WUHU216DAVISVP2,2013-01-20 22:00:00,
2013-01-20 17:05:00,19.7,11.2,30.24,SW,236,9.0,15.0,69,0.00,,,0.00,WUHU216DAVISVP2,2013-01-20 22:05:00,
2013-01-20 17:10:00,19.5,11.4,30.24,WSW,250,7.0,15.0,70,0.00,,,0.00,WUHU216DAVISVP2,2013-01-20 22:10:00,
2013-01-20 17:15:00,19.5,11.3,30.24,WSW,249,7.0,15.0,70,0.00,,,0.00,WUHU216DAVISVP2,2013-01-20 22:15:00,
2013-01-20 17:20:00,19.6,11.1,30.24,SW,216,13.0,15.0,69,0.00,,,0.00,WUHU216DAVISVP2,2013-01-20 22:20:00,
2013-01-20 17:25:00,19.6,10.8,30.24,SW,223,5.0,17.0,68,0.00,,,0.00,WUHU216DAVISVP2,2013-01-20 22:25:00,
2013-01-20 17:30:00,19.5,10.4,30.24,WSW,252,11.0,17.0,67,0.00,,,0.00,WUHU216DAVISVP2,2013-01-20 22:30:00,
2013-01-20 17:35:00,19.4,10.6,30.24,WSW,245,12.0,17.0,68,0.00,,,0.00,WUHU216DAVISVP2,2013-01-20 22:35:00,
2013-01-20 17:40:00,19.3,10.5,30.24,SW,231,11.0,17.0,68,0.00,,,0.00,WUHU216DAVISVP2,2013-01-20 22:40:00,
2013-01-20 17:45:00,19.3,10.5,30.24,SW,223,8.0,16.0,68,0.00,,,0.00,WUHU216DAVISVP2,2013-01-20 22:45:00,
2013-01-20 17:50:00,19.2,10.7,30.24,SW,227,6.0,16.0,69,0.00,,,0.00,WUHU216DAVISVP2,2013-01-20 22:50:00,
2013-01-20 17:55:00,19.1,10.6,30.24,SW,234,7.0,16.0,69,0.00,,,0.00,WUHU216DAVISVP2,2013-01-20 22:55:00,
2013-01-20 18:00:00,19.1,10.6,30.24,SW,217,9.0,16.0,69,0.00,,,0.00,WUHU216DAVISVP2,2013-01-20 23:00:00,
2013-01-20 18:05:00,19.2,11.1,30.24,SW,225,9.0,15.0,70,0.00,,,0.00,WUHU216DAVISVP2,2013-01-20 23:05:00,
2013-01-20 18:10:00,19.2,11.1,30.24,WSW,238,11.0,15.0,70,0.00,,,0.00,WUHU216DAVISVP2,2013-01-20 23:10:00,
2013-01-20 18:15:00,19.1,11.0,30.25,WSW,238,8.0,14.0,70,0.00,,,0.00,WUHU216DAVISVP2,2013-01-20 23:15:00,
2013-01-20 18:21:00,19.1,10.6,30.25,WSW,247,7.0,14.0,69,0.00,,,0.00,WUHU216DAVISVP2,2013-01-20 23:21:00,
2013-01-20 18:26:00,19.0,10.9,30.25,WSW,243,8.0,14.0,70,0.00,,,0.00,WUHU216DAVISVP2,2013-01-20 23:26:00,
2013-01-20 18:31:00,19.0,10.9,30.25,WSW,239,8.0,14.0,70,0.00,,,0.00,WUHU216DAVISVP2,2013-01-20 23:31:00,
2013-01-20 18:36:00,18.9,10.8,30.25,WSW,254,7.0,12.0,70,0.00,,,0.00,WUHU216DAVISVP2,2013-01-20 23:36:00,
2013-01-20 18:41:00,18.9,10.8,30.25,SW,236,7.0,14.0,70,0.00,,,0.00,WUHU216DAVISVP2,2013-01-20 23:41:00,
2013-01-20 18:46:00,18.9,11.1,30.25,WSW,240,8.0,14.0,71,0.00,,,0.00,WUHU216DAVISVP2,2013-01-20 23:46:00,
2013-01-20 18:51:00,18.9,11.0,30.25,West,259,9.0,14.0,71,0.00,,,0.00,WUHU216DAVISVP2,2013-01-20 23:51:00,
2013-01-20 18:56:00,18.9,10.7,30.25,SW,225,9.0,14.0,70,0.00,,,0.00,WUHU216DAVISVP2,2013-01-20 23:56:00,
2013-01-20 19:01:00,18.9,9.7,30.25,SW,234,13.0,17.0,67,0.00,,,0.00,WUHU216DAVISVP2,2013-01-21 00:01:00,
2013-01-20 19:06:00,18.9,10.4,30.25,WSW,245,8.0,17.0,69,0.00,,,0.00,WUHU216DAVISVP2,2013-01-21 00:06:00,
2013-01-20 19:12:00,18.9,10.1,30.25,SW,227,9.0,17.0,68,0.00,,,0.00,WUHU216DAVISVP2,2013-01-21 00:12:00,
2013-01-20 19:17:00,18.9,10.1,30.25,WSW,238,10.0,17.0,68,0.00,,,0.00,WUHU216DAVISVP2,2013-01-21 00:17:00,
2013-01-20 19:22:00,18.8,10.0,30.25,SW,232,8.0,18.0,68,0.00,,,0.00,WUHU216DAVISVP2,2013-01-21 00:22:00,
2013-01-20 19:27:00,18.7,9.6,30.26,WSW,246,12.0,18.0,67,0.00,,,0.00,WUHU216DAVISVP2,2013-01-21 00:27:00,
2013-01-20 19:32:00,18.6,9.5,30.25,SW,234,12.0,18.0,67,0.00,,,0.00,WUHU216DAVISVP2,2013-01-21 00:32:00,
2013-01-20 19:37:00,18.5,9.1,30.25,SW,236,14.0,19.0,66,0.00,,,0.00,WUHU216DAVISVP2,2013-01-21 00:37:00,
2013-01-20 19:42:00,18.4,9.3,30.25,SW,224,11.0,19.0,67,0.00,,,0.00,WUHU216DAVISVP2,2013-01-21 00:42:00,
2013-01-20 19:48:00,18.4,9.3,30.25,SW,223,7.0,18.0,67,0.00,,,0.00,WUHU216DAVISVP2,2013-01-21 00:48:00,
2013-01-20 19:53:00,18.4,9.3,30.25,WSW,246,14.0,18.0,67,0.00,,,0.00,WUHU216DAVISVP2,2013-01-21 00:53:00,
2013-01-20 19:58:00,18.4,9.3,30.25,WSW,244,9.0,17.0,67,0.00,,,0.00,WUHU216DAVISVP2,2013-01-21 00:58:00,
2013-01-20 20:03:00,18.4,9.0,30.25,WSW,246,11.0,17.0,66,0.00,,,0.00,WUHU216DAVISVP2,2013-01-21 01:03:00,
2013-01-20 20:08:00,18.4,9.3,30.25,WSW,238,10.0,17.0,67,0.00,,,0.00,WUHU216DAVISVP2,2013-01-21 01:08:00,
2013-01-20 20:13:00,18.4,9.7,30.25,WSW,241,11.0,15.0,68,0.00,,,0.00,WUHU216DAVISVP2,2013-01-21 01:13:00,
2013-01-20 20:18:00,18.4,10.0,30.24,WSW,255,7.0,14.0,69,0.00,,,0.00,WUHU216DAVISVP2,2013-01-21 01:18:00,
2013-01-20 20:23:00,18.4,10.3,30.25,WSW,239,10.0,14.0,70,0.00,,,0.00,WUHU216DAVISVP2,2013-01-21 01:23:00,
2013-01-20 20:28:00,18.4,10.6,30.25,WSW,243,9.0,14.0,71,0.00,,,0.00,WUHU216DAVISVP2,2013-01-21 01:28:00,
2013-01-20 20:33:00,18.3,10.2,30.25,WSW,251,12.0,14.0,70,0.00,,,0.00,WUHU216DAVISVP2,2013-01-21 01:33:00,
2013-01-20 20:38:00,18.3,10.2,30.25,WSW,241,7.0,14.0,70,0.00,,,0.00,WUHU216DAVISVP2,2013-01-21 01:38:00,
2013-01-20 20:43:00,18.3,9.9,30.25,SW,226,5.0,14.0,69,0.00,,,0.00,WUHU216DAVISVP2,2013-01-21 01:43:00,
2013-01-20 20:48:00,18.3,9.9,30.25,WSW,238,13.0,14.0,69,0.00,,,0.00,WUHU216DAVISVP2,2013-01-21 01:48:00,
2013-01-20 20:53:00,18.3,10.2,30.25,SSW,210,11.0,14.0,70,0.00,,,0.00,WUHU216DAVISVP2,2013-01-21 01:53:00,
2013-01-20 20:58:00,18.3,9.6,30.25,WSW,240,14.0,16.0,68,0.00,,,0.00,WUHU216DAVISVP2,2013-01-21 01:58:00,
2013-01-20 21:03:00,18.2,9.4,30.25,WSW,249,8.0,16.0,68,0.00,,,0.00,WUHU216DAVISVP2,2013-01-21 02:03:00,
2013-01-20 21:09:00,18.2,9.4,30.24,SW,236,10.0,16.0,68,0.00,,,0.00,WUHU216DAVISVP2,2013-01-21 02:09:00,
2013-01-20 21:14:00,18.2,9.4,30.24,SW,232,10.0,16.0,68,0.00,,,0.00,WUHU216DAVISVP2,2013-01-21 02:14:00,
2013-01-20 21:19:00,18.2,9.4,30.24,SSW,205,5.0,14.0,68,0.00,,,0.00,WUHU216DAVISVP2,2013-01-21 02:19:00,
2013-01-20 21:24:00,18.2,9.4,30.25,WSW,243,12.0,14.0,68,0.00,,,0.00,WUHU216DAVISVP2,2013-01-21 02:24:00,
2013-01-20 21:29:00,18.2,9.5,30.24,SW,230,8.0,14.0,68,0.00,,,0.00,WUHU216DAVISVP2,2013-01-21 02:29:00,
2013-01-20 21:34:00,18.2,9.5,30.24,WSW,237,13.0,14.0,68,0.00,,,0.00,WUHU216DAVISVP2,2013-01-21 02:34:00,
2013-01-20 21:39:00,18.2,9.5,30.24,WSW,250,10.0,17.0,68,0.00,,,0.00,WUHU216DAVISVP2,2013-01-21 02:39:00,
2013-01-20 21:44:00,18.1,9.4,30.24,SW,214,14.0,17.0,68,0.00,,,0.00,WUHU216DAVISVP2,2013-01-21 02:44:00,
2013-01-20 21:49:00,18.2,9.5,30.24,WSW,241,9.0,17.0,68,0.00,,,0.00,WUHU216DAVISVP2,2013-01-21 02:49:00,
2013-01-20 21:54:00,18.2,9.5,30.24,West,259,11.0,17.0,68,0.00,,,0.00,WUHU216DAVISVP2,2013-01-21 02:54:00,
2013-01-20 21:59:00,18.2,9.1,30.24,WSW,247,8.0,15.0,67,0.00,,,0.00,WUHU216DAVISVP2,2013-01-21 02:59:00,
2013-01-20 22:04:00,18.2,9.1,30.25,SW,226,7.0,16.0,67,0.00,,,0.00,WUHU216DAVISVP2,2013-01-21 03:04:00,
2013-01-20 22:09:00,18.3,9.2,30.24,WSW,251,7.0,16.0,67,0.00,,,0.00,WUHU216DAVISVP2,2013-01-21 03:09:00,
2013-01-20 22:14:00,18.3,9.6,30.24,SW,232,10.0,16.0,68,0.00,,,0.00,WUHU216DAVISVP2,2013-01-21 03:14:00,
2013-01-20 22:19:00,18.3,9.2,30.24,WSW,253,7.0,16.0,67,0.00,,,0.00,WUHU216DAVISVP2,2013-01-21 03:19:00,
2013-01-20 22:24:00,18.2,9.1,30.24,WSW,238,9.0,15.0,67,0.00,,,0.00,WUHU216DAVISVP2,2013-01-21 03:24:00,
2013-01-20 22:29:00,18.2,8.8,30.24,WSW,252,8.0,15.0,66,0.00,,,0.00,WUHU216DAVISVP2,2013-01-21 03:29:00,
2013-01-20 22:35:00,18.2,8.8,30.24,West,259,7.0,13.0,66,0.00,,,0.00,WUHU216DAVISVP2,2013-01-21 03:35:00,
2013-01-20 22:40:00,18.2,8.8,30.23,WSW,254,6.0,13.0,66,0.00,,,0.00,WUHU216DAVISVP2,2013-01-21 03:40:00,
2013-01-20 22:45:00,18.2,8.5,30.23,WSW,248,8.0,13.0,65,0.00,,,0.00,WUHU216DAVISVP2,2013-01-21 03:45:00,
2013-01-20 22:50:00,18.2,8.8,30.23,WSW,242,7.0,13.0,66,0.00,,,0.00,WUHU216DAVISVP2,2013-01-21 03:50:00,
2013-01-20 22:55:00,18.2,8.8,30.23,WSW,252,5.0,13.0,66,0.00,,,0.00,WUHU216DAVISVP2,2013-01-21 03:55:00,
2013-01-20 23:00:00,18.2,9.1,30.23,West,259,4.0,13.0,67,0.00,,,0.00,WUHU216DAVISVP2,2013-01-21 04:00:00,
2013-01-20 23:05:00,18.2,9.5,30.23,SW,235,6.0,11.0,68,0.00,,,0.00,WUHU216DAVISVP2,2013-01-21 04:05:00,
2013-01-20 23:10:00,18.2,8.8,30.22,WSW,239,9.0,11.0,66,0.00,,,0.00,WUHU216DAVISVP2,2013-01-21 04:10:00,
2013-01-20 23:15:00,18.2,8.8,30.22,WSW,248,9.0,11.0,66,0.00,,,0.00,WUHU216DAVISVP2,2013-01-21 04:15:00,
2013-01-20 23:20:00,18.1,8.7,30.22,West,267,9.0,12.0,66,0.00,,,0.00,WUHU216DAVISVP2,2013-01-21 04:20:00,
2013-01-20 23:25:00,18.1,9.0,30.22,WSW,242,8.0,12.0,67,0.00,,,0.00,WUHU216DAVISVP2,2013-01-21 04:25:00,
2013-01-20 23:30:00,18.1,8.7,30.22,WSW,246,8.0,12.0,66,0.00,,,0.00,WUHU216DAVISVP2,2013-01-21 04:30:00,
2013-01-20 23:35:00,18.1,8.7,30.22,WSW,240,7.0,12.0,66,0.00,,,0.00,WUHU216DAVISVP2,2013-01-21 04:35:00,
2013-01-20 23:40:00,18.1,9.0,30.22,West,281,6.0,12.0,67,0.00,,,0.00,WUHU216DAVISVP2,2013-01-21 04:40:00,
2013-01-20 23:45:00,18.1,8.6,30.22,SW,236,7.0,10.0,66,0.00,,,0.00,WUHU216DAVISVP2,2013-01-21 04:45:00,
2013-01-20 23:50:00,18.2,8.7,30.22,WSW,256,10.0,11.0,66,0.00,,,0.00,WUHU216DAVISVP2,2013-01-21 04:50:00,
2013-01-20 23:55:00,18.2,9.1,30.22,SW,227,5.0,11.0,67,0.00,,,0.00,WUHU216DAVISVP2,2013-01-21 04:55:00,